Flag for Czech Republic Weather past 2 weeks in Liberec, Czech Republic

Now
36 °F

Fog.


Feels Like: 36 °F
Forecast: 34 / 47 °F
Wind: 1 mph from East

Location: Liberec

Current Time: Mar 7, 2015 at 1:47:42 AM

Latest Report: Mar 7, 2015 at 1:00 AM


Visibility: 3 mi

Pressure: 30.59 "Hg

Humidity: 95%

Dew point: 35 °F

Location of LiberecLocation

Historic Weather in Liberec — Graph

°F

Liberec temperature yesterday

Maximum temperature yesterday: 41 °F (at 11:00 AM)
Minimum temperature yesterday: 33 °F (at 12:00 AM)
Average temperature yesterday: 36 °F

Past Weeks' High & Low Weather Summary

 TemperatureHumidityPressure
High47 °F (Feb 26, 1:00 PM)100% (Feb 26, 2:00 AM)30.60 "Hg (Feb 26, 2:00 AM)
Low26 °F (Feb 20, 7:00 AM)37% (Mar 3, 2:00 PM)29.50 "Hg (Feb 23, 2:00 PM)
Average36 °F81%30.00 "Hg
* Reported Midnight between Feb 19 and Feb 20 — Midnight between Mar 6 and Mar 7, Liberec, Weather by CustomWeather, © 2015

Note: Actual official high and low records may vary slightly from our data, if they occured in-between our weather recording intervals... More about our weather records

Advertising

Liberec weather history for previous 24 hours

 ConditionsComfort  
Time TempWeatherWind HumidityBarometerVisibility
12:00 AM
Sat, Mar 7
36 °FFog.1 mph95%30.58 "Hg2 mi
11:00 PM
Fri, Mar 6
36 °FFog.1 mph98%30.58 "Hg2 mi
10:00 PM35 °FFog.No wind97%30.60 "Hg2 mi
9:00 PM36 °FFog.1 mph96%30.60 "Hg5 mi
8:00 PM36 °FFog.1 mph92%30.59 "Hg6 mi
7:00 PM37 °FFog.1 mph93%30.58 "Hg6 mi
6:00 PM38 °FFog.1 mph93%30.57 "Hg2 mi
5:00 PM38 °FFog.No wind91%30.56 "Hg4 mi
4:00 PM39 °FOvercast.1 mph89%30.55 "Hg9 mi
3:00 PM38 °FLight rain. Low clouds.1 mph91%30.57 "Hg3 mi
2:00 PM38 °FLight rain. Overcast.1 mph87%30.58 "Hg3 mi
1:00 PM38 °FDrizzle. Overcast.2 mph85%30.59 "Hg5 mi
12:00 PM39 °FOvercast.2 mph74%30.60 "Hg9 mi
11:00 AM41 °FOvercast.1 mph70%30.60 "Hg11 mi
10:00 AM38 °FOvercast.1 mph82%30.60 "Hg7 mi
9:00 AM34 °FFog.1 mph93%30.60 "Hg5 mi
8:00 AM33 °FFog.No wind97%30.60 "Hg4 mi
7:00 AM33 °FFog.1 mph98%30.59 "Hg2 mi
6:00 AM33 °FFog.2 mph99%30.58 "Hg2 mi
5:00 AM33 °FChilly.1 mph98%30.58 "Hg2 mi
4:00 AM33 °FFog.2 mph98%30.58 "Hg3 mi
3:00 AM33 °FChilly.2 mph98%30.57 "Hg2 mi
2:00 AM33 °FFog.2 mph98%30.58 "Hg2 mi
1:00 AM33 °FFog.1 mph99%30.57 "Hg2 mi
Weather by CustomWeather, © 2015

See weather overviewHow to use our weather pages